Time,TemperatureF,DewpointF,PressureIn,WindDirection,WindDirectionDegrees,WindSpeedMPH,WindSpeedGustMPH,Humidity,HourlyPrecipIn,Conditions,Clouds,dailyrainin,SoftwareType,DateUTC
2013-01-22 00:00:00,23.7,21.2,29.88,NNE,27,0.0,0.0,90,0.00,,OVC200,0.00,VWS V14.01,2013-01-22 05:00:00,
2013-01-22 00:01:00,23.7,21.2,29.88,NNE,27,0.0,0.0,90,0.00,,OVC200,0.00,VWS V14.01,2013-01-22 05:01:00,
2013-01-22 00:06:00,23.7,21.2,29.85,NNE,27,0.0,1.0,90,0.00,,OVC200,0.00,VWS V14.01,2013-01-22 05:06:00,
2013-01-22 00:10:00,23.7,21.2,29.85,NNE,27,0.0,1.0,90,0.00,,OVC150,0.00,VWS V14.01,2013-01-22 05:10:00,
2013-01-22 00:11:00,23.6,21.1,29.85,NNE,27,0.0,0.0,90,0.00,,OVC200,0.00,VWS V14.01,2013-01-22 05:11:00,
2013-01-22 00:16:00,23.6,21.1,29.84,NNE,27,0.0,0.0,90,0.00,,OVC200,0.00,VWS V14.01,2013-01-22 05:16:00,
2013-01-22 00:20:00,23.6,21.1,29.84,NNE,27,0.0,0.0,90,0.00,,OVC150,0.00,VWS V14.01,2013-01-22 05:20:00,
2013-01-22 00:21:00,23.6,21.1,29.84,NNE,27,0.0,1.0,90,0.00,,OVC200,0.00,VWS V14.01,2013-01-22 05:21:00,
2013-01-22 00:26:00,23.5,21.0,29.84,NNE,27,0.0,1.0,90,0.00,,OVC200,0.00,VWS V14.01,2013-01-22 05:26:00,
2013-01-22 00:30:00,23.5,21.0,29.84,NNE,27,0.0,1.0,90,0.00,,OVC150,0.00,VWS V14.01,2013-01-22 05:30:00,
2013-01-22 00:31:00,23.5,21.0,29.84,NNE,27,0.0,0.0,90,0.00,,OVC200,0.00,VWS V14.01,2013-01-22 05:31:00,
2013-01-22 00:36:00,23.5,21.0,29.83,NNE,27,0.0,0.0,90,0.00,,OVC200,0.00,VWS V14.01,2013-01-22 05:36:00,
2013-01-22 00:40:00,23.5,21.0,29.83,NNE,27,0.0,1.0,90,0.00,,OVC150,0.00,VWS V14.01,2013-01-22 05:40:00,
2013-01-22 00:41:00,23.4,20.9,29.84,NNE,27,0.0,0.0,90,0.00,,OVC200,0.00,VWS V14.01,2013-01-22 05:41:00,
2013-01-22 00:46:00,23.4,20.9,29.84,NNE,27,0.0,1.0,90,0.00,,OVC200,0.00,VWS V14.01,2013-01-22 05:46:00,
2013-01-22 00:50:00,23.4,20.9,29.83,NNE,27,0.0,1.0,90,0.00,,OVC150,0.00,VWS V14.01,2013-01-22 05:50:00,
2013-01-22 00:51:00,23.4,20.9,29.84,NNE,27,0.0,0.0,90,0.00,,OVC200,0.00,VWS V14.01,2013-01-22 05:51:00,
2013-01-22 00:56:00,23.3,20.8,29.84,NNE,27,0.0,0.0,90,0.00,,OVC200,0.00,VWS V14.01,2013-01-22 05:56:00,
2013-01-22 01:00:00,23.3,20.5,29.85,NNE,27,0.0,0.0,89,0.00,,OVC150,0.00,VWS V14.01,2013-01-22 06:00:00,
2013-01-22 01:01:00,23.3,20.8,29.85,NNE,27,0.0,0.0,90,0.00,,OVC200,0.00,VWS V14.01,2013-01-22 06:01:00,
2013-01-22 01:06:00,23.3,20.8,29.85,NNE,27,0.0,0.0,90,0.00,,OVC200,0.00,VWS V14.01,2013-01-22 06:06:00,
2013-01-22 01:10:00,23.3,20.8,29.85,NNE,27,0.0,0.0,90,0.00,,OVC150,0.00,VWS V14.01,2013-01-22 06:10:00,
2013-01-22 01:11:00,23.3,20.8,29.85,NNE,27,0.0,0.0,90,0.00,,OVC200,0.00,VWS V14.01,2013-01-22 06:11:00,
2013-01-22 01:16:00,23.2,20.7,29.85,NNE,27,0.0,0.0,90,0.00,,OVC200,0.00,VWS V14.01,2013-01-22 06:16:00,
2013-01-22 01:20:00,23.1,20.4,29.85,NNE,27,0.0,0.0,89,0.00,,OVC150,0.00,VWS V14.01,2013-01-22 06:20:00,
2013-01-22 01:21:00,23.1,20.4,29.85,NNE,27,0.0,0.0,89,0.00,,OVC200,0.00,VWS V14.01,2013-01-22 06:21:00,
2013-01-22 01:26:00,23.1,20.4,29.84,NNE,27,0.0,0.0,89,0.00,,OVC200,0.00,VWS V14.01,2013-01-22 06:26:00,
2013-01-22 01:30:00,23.1,20.6,29.84,NNE,27,0.0,1.0,90,0.00,,OVC150,0.00,VWS V14.01,2013-01-22 06:30:00,
2013-01-22 01:31:00,23.0,20.5,29.84,NNE,27,1.0,1.0,90,0.00,,OVC200,0.00,VWS V14.01,2013-01-22 06:31:00,
2013-01-22 01:36:00,23.0,20.5,29.84,NNE,27,0.0,1.0,90,0.00,,OVC200,0.00,VWS V14.01,2013-01-22 06:36:00,
2013-01-22 01:40:00,23.0,20.5,29.84,NNE,27,0.0,1.0,90,0.00,,OVC150,0.00,VWS V14.01,2013-01-22 06:40:00,
2013-01-22 01:41:00,23.0,20.5,29.84,NNE,27,0.0,0.0,90,0.00,,OVC200,0.00,VWS V14.01,2013-01-22 06:41:00,
2013-01-22 01:46:00,23.0,20.5,29.85,NNE,27,0.0,1.0,90,0.00,,OVC200,0.00,VWS V14.01,2013-01-22 06:46:00,
2013-01-22 01:50:00,22.9,20.4,29.85,NNE,27,0.0,1.0,90,0.00,,OVC150,0.00,VWS V14.01,2013-01-22 06:50:00,
2013-01-22 01:51:00,22.9,20.4,29.85,NNE,27,0.0,0.0,90,0.00,,OVC200,0.00,VWS V14.01,2013-01-22 06:51:00,
2013-01-22 01:56:00,22.9,20.4,29.85,NNE,27,0.0,0.0,90,0.00,,OVC200,0.00,VWS V14.01,2013-01-22 06:56:00,
2013-01-22 02:00:00,22.9,20.4,29.85,NNE,27,0.0,0.0,90,0.00,,OVC150,0.00,VWS V14.01,2013-01-22 07:00:00,
2013-01-22 02:01:00,22.8,20.3,29.85,NNE,27,0.0,0.0,90,0.00,,OVC190,0.00,VWS V14.01,2013-01-22 07:01:00,
2013-01-22 02:06:00,22.8,20.3,29.85,NNE,27,0.0,0.0,90,0.00,,OVC190,0.00,VWS V14.01,2013-01-22 07:06:00,
2013-01-22 02:10:00,22.8,20.3,29.85,NNE,27,0.0,0.0,90,0.00,,OVC150,0.00,VWS V14.01,2013-01-22 07:10:00,
2013-01-22 02:11:00,22.7,20.2,29.85,NNE,27,0.0,0.0,90,0.00,,OVC190,0.00,VWS V14.01,2013-01-22 07:11:00,
2013-01-22 02:16:00,22.7,20.2,29.85,NNE,27,0.0,1.0,90,0.00,,OVC190,0.00,VWS V14.01,2013-01-22 07:16:00,
2013-01-22 02:20:00,22.7,20.2,29.85,NNE,27,0.0,1.0,90,0.00,,OVC150,0.00,VWS V14.01,2013-01-22 07:20:00,
2013-01-22 02:21:00,22.7,20.2,29.84,NNE,27,0.0,1.0,90,0.00,,OVC190,0.00,VWS V14.01,2013-01-22 07:21:00,
2013-01-22 02:26:00,22.7,20.2,29.85,NNE,27,0.0,1.0,90,0.00,,OVC190,0.00,VWS V14.01,2013-01-22 07:26:00,
2013-01-22 02:30:00,22.7,20.2,29.85,NNE,27,0.0,1.0,90,0.00,,OVC150,0.00,VWS V14.01,2013-01-22 07:30:00,
2013-01-22 02:31:00,22.6,20.1,29.85,NNE,27,0.0,0.0,90,0.00,,OVC190,0.00,VWS V14.01,2013-01-22 07:31:00,
2013-01-22 02:36:00,22.6,20.1,29.85,NNE,27,0.0,1.0,90,0.00,,OVC190,0.00,VWS V14.01,2013-01-22 07:36:00,
2013-01-22 02:40:00,22.6,20.1,29.85,NNE,24,0.0,2.0,90,0.00,,OVC150,0.00,VWS V14.01,2013-01-22 07:40:00,
2013-01-22 02:41:00,22.6,20.1,29.85,NNE,22,0.0,1.0,90,0.00,,OVC190,0.00,VWS V14.01,2013-01-22 07:41:00,
2013-01-22 02:46:00,22.7,20.2,29.85,WNW,295,1.0,4.0,90,0.00,,OVC190,0.00,VWS V14.01,2013-01-22 07:46:00,
2013-01-22 02:50:00,22.7,20.2,29.85,NW,309,4.0,4.0,90,0.00,,OVC150,0.00,VWS V14.01,2013-01-22 07:50:00,
2013-01-22 02:51:00,22.7,20.2,29.85,NW,316,0.0,4.0,90,0.00,,OVC190,0.00,VWS V14.01,2013-01-22 07:51:00,
2013-01-22 02:56:00,22.7,20.2,29.85,WNW,303,0.0,4.0,90,0.00,,OVC190,0.00,VWS V14.01,2013-01-22 07:56:00,
2013-01-22 03:00:00,22.8,20.3,29.85,NW,316,0.0,4.0,90,0.00,,OVC150,0.00,VWS V14.01,2013-01-22 08:00:00,
2013-01-22 03:01:00,22.8,20.3,29.85,WNW,303,0.0,4.0,90,0.00,,OVC190,0.00,VWS V14.01,2013-01-22 08:01:00,
2013-01-22 03:06:00,22.9,20.4,29.84,NNW,328,0.0,4.0,90,0.00,,OVC190,0.00,VWS V14.01,2013-01-22 08:06:00,
2013-01-22 03:10:00,22.9,20.4,29.84,NW,307,0.0,4.0,90,0.00,,OVC150,0.00,VWS V14.01,2013-01-22 08:10:00,
2013-01-22 03:11:00,22.9,20.4,29.84,NW,307,0.0,0.0,90,0.00,,OVC190,0.00,VWS V14.01,2013-01-22 08:11:00,
2013-01-22 03:16:00,23.0,20.5,29.84,NNE,20,0.0,1.0,90,0.00,,OVC190,0.00,VWS V14.01,2013-01-22 08:16:00,
2013-01-22 03:20:00,23.0,20.5,29.84,NNE,20,0.0,1.0,90,0.00,,OVC150,0.00,VWS V14.01,2013-01-22 08:20:00,
2013-01-22 03:21:00,23.0,20.5,29.84,NNE,19,1.0,1.0,90,0.00,,OVC190,0.00,VWS V14.01,2013-01-22 08:21:00,
2013-01-22 03:26:00,23.0,20.2,29.84,North,355,0.0,2.0,89,0.00,,OVC190,0.00,VWS V14.01,2013-01-22 08:26:00,
2013-01-22 03:30:00,22.9,20.1,29.84,North,355,0.0,2.0,89,0.00,,OVC150,0.00,VWS V14.01,2013-01-22 08:30:00,
2013-01-22 03:31:00,22.9,20.1,29.84,North,355,0.0,0.0,89,0.00,,OVC190,0.00,VWS V14.01,2013-01-22 08:31:00,
2013-01-22 03:36:00,22.8,20.0,29.84,North,355,0.0,0.0,89,0.00,,OVC190,0.00,VWS V14.01,2013-01-22 08:36:00,
2013-01-22 03:40:00,22.7,20.0,29.84,North,355,2.0,2.0,89,0.00,,OVC150,0.00,VWS V14.01,2013-01-22 08:40:00,
2013-01-22 03:41:00,22.7,20.0,29.85,NNW,342,0.0,2.0,89,0.00,,OVC190,0.00,VWS V14.01,2013-01-22 08:41:00,
2013-01-22 03:46:00,22.6,19.9,29.85,NNW,334,1.0,4.0,89,0.00,,OVC190,0.00,VWS V14.01,2013-01-22 08:46:00,
2013-01-22 03:50:00,22.6,19.9,29.85,NNW,337,0.0,4.0,89,0.00,,OVC150,0.00,VWS V14.01,2013-01-22 08:50:00,
2013-01-22 03:51:00,22.5,19.8,29.85,NNW,337,0.0,1.0,89,0.00,,OVC190,0.00,VWS V14.01,2013-01-22 08:51:00,
2013-01-22 03:56:00,22.5,19.8,29.84,NNW,337,0.0,1.0,89,0.00,,OVC190,0.00,VWS V14.01,2013-01-22 08:56:00,
2013-01-22 04:00:00,22.4,19.7,29.84,NNW,337,0.0,1.0,89,0.00,,OVC150,0.00,VWS V14.01,2013-01-22 09:00:00,
2013-01-22 04:01:00,22.3,19.6,29.85,NNW,337,0.0,0.0,89,0.00,,OVC190,0.00,VWS V14.01,2013-01-22 09:01:00,
2013-01-22 04:06:00,22.1,19.1,29.85,NNW,337,0.0,0.0,88,0.00,,OVC190,0.00,VWS V14.01,2013-01-22 09:06:00,
2013-01-22 04:10:00,21.8,18.8,29.85,NNW,337,0.0,0.0,88,0.00,,OVC150,0.00,VWS V14.01,2013-01-22 09:10:00,
2013-01-22 04:11:00,21.8,18.8,29.85,NNW,337,0.0,0.0,88,0.00,,OVC190,0.00,VWS V14.01,2013-01-22 09:11:00,
2013-01-22 04:16:00,21.5,18.5,29.85,NNW,337,0.0,0.0,88,0.00,,OVC190,0.00,VWS V14.01,2013-01-22 09:16:00,
2013-01-22 04:20:00,21.2,18.2,29.85,NNW,337,0.0,0.0,88,0.00,,OVC150,0.00,VWS V14.01,2013-01-22 09:20:00,
2013-01-22 04:21:00,21.2,18.2,29.85,NNW,337,0.0,0.0,88,0.00,,OVC190,0.00,VWS V14.01,2013-01-22 09:21:00,
2013-01-22 04:26:00,20.9,17.9,29.85,NNW,337,0.0,0.0,88,0.00,,OVC190,0.00,VWS V14.01,2013-01-22 09:26:00,
2013-01-22 04:30:00,20.8,17.8,29.84,NNW,337,0.0,0.0,88,0.00,,OVC150,0.00,VWS V14.01,2013-01-22 09:30:00,
2013-01-22 04:31:00,20.7,17.7,29.84,NNW,337,0.0,0.0,88,0.00,,OVC190,0.00,VWS V14.01,2013-01-22 09:31:00,
2013-01-22 04:36:00,20.4,17.4,29.85,NNW,337,0.0,0.0,88,0.00,,OVC190,0.00,VWS V14.01,2013-01-22 09:36:00,
2013-01-22 04:40:00,20.2,17.2,29.84,NNW,337,0.0,0.0,88,0.00,,OVC150,0.00,VWS V14.01,2013-01-22 09:40:00,
2013-01-22 04:41:00,20.2,17.2,29.84,NNW,337,0.0,0.0,88,0.00,,OVC190,0.00,VWS V14.01,2013-01-22 09:41:00,
2013-01-22 04:46:00,20.0,17.3,29.84,NNW,337,0.0,0.0,89,0.00,,OVC190,0.00,VWS V14.01,2013-01-22 09:46:00,
2013-01-22 04:50:00,19.8,17.1,29.85,NNW,337,0.0,0.0,89,0.00,,OVC150,0.00,VWS V14.01,2013-01-22 09:50:00,
2013-01-22 04:51:00,19.8,17.1,29.85,NNW,337,0.0,0.0,89,0.00,,OVC190,0.00,VWS V14.01,2013-01-22 09:51:00,
2013-01-22 04:56:00,19.7,17.0,29.85,NNW,337,0.0,0.0,89,0.00,,OVC190,0.00,VWS V14.01,2013-01-22 09:56:00,
2013-01-22 05:00:00,19.6,16.9,29.85,NNW,337,0.0,0.0,89,0.00,,OVC150,0.00,VWS V14.01,2013-01-22 10:00:00,
2013-01-22 05:01:00,19.6,16.9,29.85,NNW,337,0.0,0.0,89,0.00,,OVC190,0.00,VWS V14.01,2013-01-22 10:01:00,
2013-01-22 05:06:00,19.7,17.2,29.85,NNW,337,0.0,0.0,90,0.00,,OVC190,0.00,VWS V14.01,2013-01-22 10:06:00,
2013-01-22 05:10:00,19.7,17.2,29.85,NNW,337,0.0,0.0,90,0.00,,OVC150,0.00,VWS V14.01,2013-01-22 10:10:00,
2013-01-22 05:11:00,19.7,17.2,29.85,NNW,337,0.0,0.0,90,0.00,,OVC190,0.00,VWS V14.01,2013-01-22 10:11:00,
2013-01-22 05:16:00,19.9,17.7,29.85,NNW,337,0.0,0.0,91,0.00,,OVC190,0.00,VWS V14.01,2013-01-22 10:16:00,
2013-01-22 05:20:00,20.0,17.8,29.86,NNW,337,0.0,0.0,91,0.00,,OVC150,0.00,VWS V14.01,2013-01-22 10:20:00,
2013-01-22 05:21:00,20.1,17.9,29.86,NNW,337,0.0,0.0,91,0.00,,OVC190,0.00,VWS V14.01,2013-01-22 10:21:00,
2013-01-22 05:26:00,20.5,18.5,29.86,NNE,13,0.0,4.0,92,0.00,,OVC190,0.00,VWS V14.01,2013-01-22 10:26:00,
2013-01-22 05:30:00,20.9,19.0,29.86,WNW,283,3.0,7.0,92,0.00,,OVC150,0.00,VWS V14.01,2013-01-22 10:30:00,
2013-01-22 05:31:00,21.0,19.0,29.86,NNW,348,2.0,4.0,92,0.00,,OVC190,0.00,VWS V14.01,2013-01-22 10:31:00,
2013-01-22 05:36:00,21.3,19.3,29.86,NNW,329,1.0,7.0,92,0.00,,OVC190,0.00,VWS V14.01,2013-01-22 10:36:00,
2013-01-22 05:40:00,21.6,19.4,29.86,NW,305,4.0,7.0,91,0.00,,OVC150,0.00,VWS V14.01,2013-01-22 10:40:00,
2013-01-22 05:41:00,21.7,19.5,29.86,NW,320,0.0,4.0,91,0.00,,OVC190,0.00,VWS V14.01,2013-01-22 10:41:00,
2013-01-22 05:46:00,21.7,19.2,29.87,NW,317,0.0,4.0,90,0.00,,OVC190,0.00,VWS V14.01,2013-01-22 10:46:00,
2013-01-22 05:50:00,21.8,19.3,29.87,WNW,298,1.0,4.0,90,0.00,,OVC150,0.00,VWS V14.01,2013-01-22 10:50:00,
2013-01-22 05:51:00,21.8,19.3,29.87,WNW,298,0.0,1.0,90,0.00,,OVC190,0.00,VWS V14.01,2013-01-22 10:51:00,
2013-01-22 05:56:00,21.7,19.0,29.87,NW,318,0.0,5.0,89,0.00,,OVC190,0.00,VWS V14.01,2013-01-22 10:56:00,
2013-01-22 06:00:00,21.7,19.0,29.87,NW,319,0.0,5.0,89,0.00,,OVC150,0.00,VWS V14.01,2013-01-22 11:00:00,
2013-01-22 06:01:00,21.7,19.0,29.88,NW,319,1.0,1.0,89,0.00,,OVC190,0.00,VWS V14.01,2013-01-22 11:01:00,
2013-01-22 06:06:00,21.7,18.7,29.88,NNW,333,0.0,3.0,88,0.00,,OVC190,0.00,VWS V14.01,2013-01-22 11:06:00,
2013-01-22 06:10:00,21.7,18.7,29.88,NNE,14,1.0,6.0,88,0.00,,OVC150,0.00,VWS V14.01,2013-01-22 11:10:00,
2013-01-22 06:11:00,21.7,18.7,29.88,NNW,338,0.0,3.0,88,0.00,,OVC190,0.00,VWS V14.01,2013-01-22 11:11:00,
2013-01-22 06:16:00,21.7,18.2,29.88,NNW,342,3.0,10.0,86,0.00,,OVC190,0.00,VWS V14.01,2013-01-22 11:16:00,
2013-01-22 06:20:00,21.7,17.9,29.88,NNW,348,1.0,10.0,85,0.00,,OVC150,0.00,VWS V14.01,2013-01-22 11:20:00,
2013-01-22 06:21:00,21.7,17.9,29.88,North,9,4.0,4.0,85,0.00,,OVC190,0.00,VWS V14.01,2013-01-22 11:21:00,
2013-01-22 06:27:00,21.6,17.5,29.89,NW,310,1.0,7.0,84,0.00,,OVC190,0.00,VWS V14.01,2013-01-22 11:27:00,
2013-01-22 06:30:00,21.6,17.5,29.89,NW,321,1.0,7.0,84,0.00,,OVC150,0.00,VWS V14.01,2013-01-22 11:30:00,
2013-01-22 06:32:00,21.5,17.1,29.89,NW,320,0.0,3.0,83,0.00,,OVC190,0.00,VWS V14.01,2013-01-22 11:32:00,
2013-01-22 06:37:00,21.5,17.1,29.89,West,279,1.0,6.0,83,0.00,,OVC190,0.00,VWS V14.01,2013-01-22 11:37:00,
2013-01-22 06:40:00,21.4,17.0,29.90,NNW,346,0.0,6.0,83,0.00,,OVC150,0.00,VWS V14.01,2013-01-22 11:40:00,
2013-01-22 06:42:00,21.4,17.0,29.90,NNW,336,2.0,5.0,83,0.00,,OVC190,0.00,VWS V14.01,2013-01-22 11:42:00,
2013-01-22 06:47:00,21.2,16.6,29.90,NNW,340,3.0,9.0,82,0.00,,OVC190,0.00,VWS V14.01,2013-01-22 11:47:00,
2013-01-22 06:50:00,21.1,16.5,29.90,North,5,0.0,9.0,82,0.00,,OVC150,0.00,VWS V14.01,2013-01-22 11:50:00,
2013-01-22 06:52:00,21.0,16.1,29.90,NW,321,1.0,5.0,81,0.00,,OVC190,0.00,VWS V14.01,2013-01-22 11:52:00,
2013-01-22 06:57:00,20.7,15.5,29.91,WNW,295,0.0,6.0,80,0.00,,OVC190,0.00,VWS V14.01,2013-01-22 11:57:00,
2013-01-22 07:00:00,20.6,15.4,29.90,NW,323,0.0,6.0,80,0.00,,OVC150,0.00,VWS V14.01,2013-01-22 12:00:00,
2013-01-22 07:02:00,20.4,15.2,29.91,NW,323,0.0,1.0,80,0.00,,BKN300,0.00,VWS V14.01,2013-01-22 12:02:00,
2013-01-22 07:07:00,20.2,15.0,29.91,NW,311,6.0,7.0,80,0.00,,BKN300,0.00,VWS V14.01,2013-01-22 12:07:00,
2013-01-22 07:10:00,20.0,14.8,29.91,WNW,292,1.0,7.0,80,0.00,,OVC150,0.00,VWS V14.01,2013-01-22 12:10:00,
2013-01-22 07:12:00,20.0,14.8,29.91,ESE,110,1.0,6.0,80,0.00,,BKN300,0.00,VWS V14.01,2013-01-22 12:12:00,
2013-01-22 07:17:00,19.7,14.5,29.91,WNW,297,0.0,6.0,80,0.00,,BKN300,0.00,VWS V14.01,2013-01-22 12:17:00,
2013-01-22 07:20:00,19.6,14.2,29.91,NW,311,1.0,6.0,79,0.00,,OVC150,0.00,VWS V14.01,2013-01-22 12:20:00,
2013-01-22 07:22:00,19.5,14.1,29.91,West,266,2.0,4.0,79,0.00,,BKN300,0.00,VWS V14.01,2013-01-22 12:22:00,
2013-01-22 07:27:00,19.3,13.9,29.92,NNW,338,0.0,5.0,79,0.00,,BKN300,0.00,VWS V14.01,2013-01-22 12:27:00,
2013-01-22 07:30:00,19.2,13.8,29.92,NNW,338,2.0,5.0,79,0.00,,OVC150,0.00,VWS V14.01,2013-01-22 12:30:00,
2013-01-22 07:32:00,19.1,13.7,29.92,WNW,291,1.0,2.0,79,0.00,,BKN300,0.00,VWS V14.01,2013-01-22 12:32:00,
2013-01-22 07:37:00,19.0,13.6,29.92,West,278,0.0,3.0,79,0.00,,BKN300,0.00,VWS V14.01,2013-01-22 12:37:00,
2013-01-22 07:40:00,18.9,13.5,29.92,WNW,301,1.0,10.0,79,0.00,,OVC150,0.00,VWS V14.01,2013-01-22 12:40:00,
2013-01-22 07:42:00,18.9,13.2,29.92,NW,313,0.0,7.0,78,0.00,,BKN300,0.00,VWS V14.01,2013-01-22 12:42:00,
2013-01-22 07:47:00,18.9,13.2,29.92,WNW,300,0.0,7.0,78,0.00,,BKN300,0.00,VWS V14.01,2013-01-22 12:47:00,
2013-01-22 07:50:00,18.9,12.9,29.92,West,281,3.0,8.0,77,0.00,,OVC150,0.00,VWS V14.01,2013-01-22 12:50:00,
2013-01-22 07:52:00,18.9,12.9,29.92,West,281,4.0,8.0,77,0.00,,BKN300,0.00,VWS V14.01,2013-01-22 12:52:00,
2013-01-22 07:57:00,19.0,12.7,29.92,WNW,299,5.0,8.0,76,0.00,,BKN300,0.00,VWS V14.01,2013-01-22 12:57:00,
2013-01-22 08:00:00,18.9,12.6,29.93,NNE,32,1.0,8.0,76,0.00,,OVC150,0.00,VWS V14.01,2013-01-22 13:00:00,
2013-01-22 08:02:00,18.9,12.6,29.93,WNW,287,0.0,5.0,76,0.00,,OVC300,0.00,VWS V14.01,2013-01-22 13:02:00,
2013-01-22 08:07:00,18.9,12.3,29.93,NNW,336,1.0,8.0,75,0.00,,OVC300,0.00,VWS V14.01,2013-01-22 13:07:00,
2013-01-22 08:10:00,18.9,12.3,29.93,WNW,296,0.0,9.0,75,0.00,,OVC150,0.00,VWS V14.01,2013-01-22 13:10:00,
2013-01-22 08:12:00,18.9,12.0,29.93,West,273,8.0,8.0,74,0.00,,OVC300,0.00,VWS V14.01,2013-01-22 13:12:00,
2013-01-22 08:17:00,19.0,12.1,29.93,West,279,9.0,9.0,74,0.00,,OVC300,0.00,VWS V14.01,2013-01-22 13:17:00,
2013-01-22 08:20:00,19.0,12.1,29.93,NW,306,7.0,11.0,74,0.00,,OVC150,0.00,VWS V14.01,2013-01-22 13:20:00,
2013-01-22 08:22:00,19.1,11.9,29.94,WNW,290,9.0,11.0,73,0.00,,OVC300,0.00,VWS V14.01,2013-01-22 13:22:00,
2013-01-22 08:27:00,19.2,11.7,29.93,NW,317,8.0,11.0,72,0.00,,OVC300,0.00,VWS V14.01,2013-01-22 13:27:00,
2013-01-22 08:30:00,19.3,11.8,29.94,North,360,2.0,11.0,72,0.00,,OVC150,0.00,VWS V14.01,2013-01-22 13:30:00,
2013-01-22 08:32:00,19.3,11.8,29.94,North,5,1.0,8.0,72,0.00,,OVC300,0.00,VWS V14.01,2013-01-22 13:32:00,
2013-01-22 08:37:00,19.4,11.6,29.94,NW,324,6.0,11.0,71,0.00,,OVC300,0.00,VWS V14.01,2013-01-22 13:37:00,
2013-01-22 08:40:00,19.5,11.6,29.94,West,274,0.0,11.0,71,0.00,,OVC150,0.00,VWS V14.01,2013-01-22 13:40:00,
2013-01-22 08:42:00,19.6,11.4,29.94,WSW,242,3.0,11.0,70,0.00,,OVC300,0.00,VWS V14.01,2013-01-22 13:42:00,
2013-01-22 08:47:00,19.7,11.5,29.94,WNW,284,4.0,11.0,70,0.00,,OVC300,0.00,VWS V14.01,2013-01-22 13:47:00,
2013-01-22 08:50:00,19.8,11.3,29.94,NNE,19,0.0,11.0,69,0.00,,OVC150,0.00,VWS V14.01,2013-01-22 13:50:00,
2013-01-22 08:52:00,19.9,11.7,29.94,WNW,301,5.0,11.0,70,0.00,,OVC300,0.00,VWS V14.01,2013-01-22 13:52:00,
2013-01-22 08:57:00,20.1,11.2,29.95,NNW,327,0.0,11.0,68,0.00,,OVC300,0.00,VWS V14.01,2013-01-22 13:57:00,
2013-01-22 09:00:00,20.2,11.4,29.94,WNW,300,5.0,11.0,68,0.00,,OVC150,0.00,VWS V14.01,2013-01-22 14:00:00,
2013-01-22 09:02:00,20.3,11.1,29.94,NW,313,4.0,7.0,67,0.00,,OVC300,0.00,VWS V14.01,2013-01-22 14:02:00,
2013-01-22 09:07:00,20.6,11.1,29.94,West,273,0.0,12.0,66,0.00,,OVC300,0.00,VWS V14.01,2013-01-22 14:07:00,
2013-01-22 09:10:00,20.8,11.2,29.95,NW,313,5.0,13.0,66,0.00,,OVC150,0.00,VWS V14.01,2013-01-22 14:10:00,
2013-01-22 09:12:00,20.9,10.6,29.95,West,280,1.0,15.0,64,0.00,,OVC300,0.00,VWS V14.01,2013-01-22 14:12:00,
2013-01-22 09:17:00,21.2,10.9,29.95,WNW,301,5.0,15.0,64,0.00,,OVC300,0.00,VWS V14.01,2013-01-22 14:17:00,
2013-01-22 09:20:00,21.4,10.4,29.95,North,360,1.0,15.0,62,0.00,,OVC150,0.00,VWS V14.01,2013-01-22 14:20:00,
2013-01-22 09:22:00,21.5,10.5,29.95,North,5,1.0,7.0,62,0.00,,OVC300,0.00,VWS V14.01,2013-01-22 14:22:00,
2013-01-22 09:27:00,21.8,10.8,29.96,WNW,298,1.0,8.0,62,0.00,,OVC300,0.00,VWS V14.01,2013-01-22 14:27:00,
2013-01-22 09:30:00,22.0,10.6,29.96,NE,46,2.0,11.0,61,0.00,,OVC150,0.00,VWS V14.01,2013-01-22 14:30:00,
2013-01-22 09:32:00,22.1,10.4,29.96,NE,51,0.0,14.0,60,0.00,,OVC300,0.00,VWS V14.01,2013-01-22 14:32:00,
2013-01-22 09:37:00,22.2,10.1,29.96,NNW,346,5.0,14.0,59,0.00,,OVC300,0.00,VWS V14.01,2013-01-22 14:37:00,
2013-01-22 09:40:00,22.2,9.7,29.96,WNW,302,1.0,14.0,58,0.00,,OVC150,0.00,VWS V14.01,2013-01-22 14:40:00,
2013-01-22 09:42:00,22.3,9.8,29.96,North,360,5.0,13.0,58,0.00,,OVC300,0.00,VWS V14.01,2013-01-22 14:42:00,
2013-01-22 09:47:00,22.1,9.6,29.97,NW,311,7.0,14.0,58,0.00,,OVC300,0.00,VWS V14.01,2013-01-22 14:47:00,
2013-01-22 09:50:00,22.1,8.8,29.97,NNW,332,3.0,14.0,56,0.00,,OVC150,0.00,VWS V14.01,2013-01-22 14:50:00,
2013-01-22 09:52:00,22.1,9.2,29.97,NNW,332,1.0,8.0,57,0.00,,OVC300,0.00,VWS V14.01,2013-01-22 14:52:00,
2013-01-22 09:57:00,22.2,9.3,29.97,SW,229,0.0,13.0,57,0.00,,OVC300,0.00,VWS V14.01,2013-01-22 14:57:00,
2013-01-22 10:00:00,22.4,8.7,29.97,NW,305,5.0,15.0,55,0.00,,OVC150,0.00,VWS V14.01,2013-01-22 15:00:00,
2013-01-22 10:02:00,22.4,8.7,29.98,West,267,6.0,10.0,55,0.00,,OVC300,0.00,VWS V14.01,2013-01-22 15:02:00,
2013-01-22 10:07:00,22.5,8.0,29.98,NNW,343,8.0,12.0,53,0.00,,OVC300,0.00,VWS V14.01,2013-01-22 15:07:00,
2013-01-22 10:10:00,22.4,8.3,29.98,NW,304,1.0,12.0,54,0.00,,OVC150,0.00,VWS V14.01,2013-01-22 15:10:00,
2013-01-22 10:12:00,22.5,9.2,29.98,West,271,3.0,5.0,56,0.00,,OVC300,0.00,VWS V14.01,2013-01-22 15:12:00,
2013-01-22 10:17:00,23.1,9.8,29.97,South,180,0.0,8.0,56,0.00,,OVC300,0.00,VWS V14.01,2013-01-22 15:17:00,
2013-01-22 10:20:00,23.3,7.9,29.97,North,5,2.0,12.0,51,0.00,,OVC150,0.00,VWS V14.01,2013-01-22 15:20:00,
2013-01-22 10:22:00,23.3,7.4,29.97,NNW,336,0.0,11.0,50,0.00,,OVC300,0.00,VWS V14.01,2013-01-22 15:22:00,
2013-01-22 10:27:00,23.1,7.2,29.97,NNW,328,1.0,11.0,50,0.01,,OVC300,0.01,VWS V14.01,2013-01-22 15:27:00,
2013-01-22 10:30:00,23.3,7.0,29.98,West,267,1.0,15.0,49,0.01,,OVC150,0.01,VWS V14.01,2013-01-22 15:30:00,
2013-01-22 10:32:00,23.2,6.9,29.97,North,10,1.0,12.0,49,0.01,,OVC300,0.01,VWS V14.01,2013-01-22 15:32:00,
2013-01-22 10:37:00,23.0,6.2,29.97,NNW,327,0.0,12.0,48,0.01,,OVC300,0.01,VWS V14.01,2013-01-22 15:37:00,
2013-01-22 10:40:00,23.2,7.3,29.98,North,5,5.0,12.0,50,0.01,,OVC150,0.01,VWS V14.01,2013-01-22 15:40:00,
2013-01-22 10:42:00,23.3,6.1,29.97,WSW,243,6.0,14.0,47,0.01,,OVC300,0.01,VWS V14.01,2013-01-22 15:42:00,
2013-01-22 10:47:00,23.0,5.3,29.97,North,11,8.0,14.0,46,0.01,,OVC300,0.01,VWS V14.01,2013-01-22 15:47:00,
2013-01-22 10:50:00,23.0,4.8,29.97,NW,304,4.0,14.0,45,0.01,,OVC150,0.01,VWS V14.01,2013-01-22 15:50:00,
2013-01-22 10:52:00,23.1,4.9,29.97,WNW,284,1.0,12.0,45,0.01,,OVC300,0.01,VWS V14.01,2013-01-22 15:52:00,
2013-01-22 10:57:00,23.4,4.7,29.97,NW,305,5.0,13.0,44,0.01,,OVC300,0.01,VWS V14.01,2013-01-22 15:57:00,
2013-01-22 11:00:00,23.4,4.7,29.97,WNW,295,1.0,14.0,44,0.01,,OVC150,0.01,VWS V14.01,2013-01-22 16:00:00,
2013-01-22 11:02:00,23.4,4.2,29.97,WSW,258,5.0,9.0,43,0.01,,BKN300,0.01,VWS V14.01,2013-01-22 16:02:00,
2013-01-22 11:07:00,23.5,4.3,29.97,South,171,4.0,13.0,43,0.01,,BKN300,0.01,VWS V14.01,2013-01-22 16:07:00,
2013-01-22 11:10:00,23.5,3.8,29.97,NNW,328,1.0,14.0,42,0.01,,OVC150,0.01,VWS V14.01,2013-01-22 16:10:00,
2013-01-22 11:12:00,23.5,4.3,29.97,WNW,300,2.0,8.0,43,0.01,,BKN300,0.01,VWS V14.01,2013-01-22 16:12:00,
2013-01-22 11:17:00,23.6,4.4,29.97,NW,317,3.0,15.0,43,0.01,,BKN300,0.01,VWS V14.01,2013-01-22 16:17:00,
2013-01-22 11:20:00,23.7,4.0,29.97,NE,49,2.0,15.0,42,0.01,,OVC150,0.01,VWS V14.01,2013-01-22 16:20:00,
2013-01-22 11:22:00,23.6,3.4,29.96,North,349,1.0,16.0,41,0.02,,BKN300,0.02,VWS V14.01,2013-01-22 16:22:00,
2013-01-22 11:27:00,23.8,4.6,29.96,NW,321,3.0,16.0,43,0.02,,BKN300,0.02,VWS V14.01,2013-01-22 16:27:00,
2013-01-22 11:30:00,24.0,5.3,29.97,North,360,0.0,16.0,44,0.02,,OVC150,0.02,VWS V14.01,2013-01-22 16:30:00,
2013-01-22 11:32:00,24.1,4.3,29.97,NNW,338,4.0,9.0,42,0.01,,BKN300,0.02,VWS V14.01,2013-01-22 16:32:00,
2013-01-22 11:37:00,24.2,4.9,29.96,WNW,292,3.0,12.0,43,0.01,,BKN300,0.02,VWS V14.01,2013-01-22 16:37:00,
2013-01-22 11:40:00,24.2,5.4,29.96,WNW,294,3.0,12.0,44,0.01,,OVC150,0.02,VWS V14.01,2013-01-22 16:40:00,
2013-01-22 11:42:00,24.2,4.9,29.96,NW,304,1.0,5.0,43,0.01,,BKN300,0.02,VWS V14.01,2013-01-22 16:42:00,
2013-01-22 11:47:00,24.4,5.1,29.96,NNW,346,3.0,7.0,43,0.01,,BKN300,0.02,VWS V14.01,2013-01-22 16:47:00,
2013-01-22 11:50:00,24.4,4.6,29.96,WNW,292,0.0,8.0,42,0.01,,OVC150,0.02,VWS V14.01,2013-01-22 16:50:00,
2013-01-22 11:52:00,24.3,3.5,29.96,WNW,289,20.0,20.0,40,0.01,,BKN300,0.02,VWS V14.01,2013-01-22 16:52:00,
2013-01-22 11:57:00,24.0,4.2,29.96,WNW,297,5.0,20.0,42,0.01,,BKN300,0.02,VWS V14.01,2013-01-22 16:57:00,
2013-01-22 12:00:00,24.0,4.2,29.96,WNW,293,4.0,20.0,42,0.01,,OVC150,0.02,VWS V14.01,2013-01-22 17:00:00,
2013-01-22 12:02:00,24.0,3.7,29.96,WNW,299,6.0,11.0,41,0.01,,OVC300,0.02,VWS V14.01,2013-01-22 17:02:00,
2013-01-22 12:07:00,24.2,6.4,29.96,WNW,288,4.0,11.0,46,0.01,,OVC300,0.02,VWS V14.01,2013-01-22 17:07:00,
2013-01-22 12:10:00,24.3,5.0,29.96,West,278,4.0,11.0,43,0.01,,OVC150,0.02,VWS V14.01,2013-01-22 17:10:00,
2013-01-22 12:12:00,24.4,5.1,29.96,WNW,292,6.0,11.0,43,0.01,,OVC300,0.02,VWS V14.01,2013-01-22 17:12:00,
2013-01-22 12:17:00,24.4,5.1,29.96,North,355,0.0,11.0,43,0.01,,OVC300,0.02,VWS V14.01,2013-01-22 17:17:00,
2013-01-22 12:20:00,24.5,5.2,29.96,NNW,347,2.0,11.0,43,0.01,,OVC150,0.02,VWS V14.01,2013-01-22 17:20:00,
2013-01-22 12:22:00,24.8,5.5,29.96,NW,324,8.0,9.0,43,0.01,,OVC300,0.02,VWS V14.01,2013-01-22 17:22:00,
2013-01-22 12:27:00,24.7,4.4,29.96,NW,307,1.0,12.0,41,0.01,,OVC300,0.02,VWS V14.01,2013-01-22 17:27:00,
2013-01-22 12:30:00,24.8,5.0,29.95,NNW,335,1.0,12.0,42,0.01,,OVC150,0.02,VWS V14.01,2013-01-22 17:30:00,
2013-01-22 12:32:00,24.8,5.0,29.95,North,355,3.0,11.0,42,0.00,,OVC300,0.02,VWS V14.01,2013-01-22 17:32:00,
2013-01-22 12:38:00,24.9,5.6,29.95,WNW,286,0.0,11.0,43,0.00,,OVC300,0.02,VWS V14.01,2013-01-22 17:38:00,
2013-01-22 12:40:00,25.0,5.2,29.96,WSW,247,3.0,11.0,42,0.00,,OVC150,0.02,VWS V14.01,2013-01-22 17:40:00,
2013-01-22 12:43:00,24.9,5.1,29.96,SW,229,3.0,10.0,42,0.00,,OVC300,0.02,VWS V14.01,2013-01-22 17:43:00,
2013-01-22 12:48:00,24.9,5.1,29.95,NNW,340,2.0,10.0,42,0.00,,OVC300,0.02,VWS V14.01,2013-01-22 17:48:00,
2013-01-22 12:50:00,24.9,4.6,29.95,NW,313,0.0,10.0,41,0.00,,OVC150,0.02,VWS V14.01,2013-01-22 17:50:00,
2013-01-22 12:53:00,25.0,4.6,29.96,North,5,0.0,6.0,41,0.00,,OVC300,0.02,VWS V14.01,2013-01-22 17:53:00,
2013-01-22 12:58:00,25.2,6.4,29.96,NW,307,1.0,8.0,44,0.00,,OVC300,0.02,VWS V14.01,2013-01-22 17:58:00,
2013-01-22 13:00:00,25.4,5.0,29.96,NNE,16,2.0,9.0,41,0.00,,OVC150,0.02,VWS V14.01,2013-01-22 18:00:00,
2013-01-22 13:03:00,25.5,5.6,29.96,WNW,301,6.0,13.0,42,0.00,,OVC300,0.02,VWS V14.01,2013-01-22 18:03:00,
2013-01-22 13:08:00,25.3,3.3,29.96,WNW,288,3.0,13.0,38,0.00,,OVC300,0.02,VWS V14.01,2013-01-22 18:08:00,
2013-01-22 13:10:00,25.1,3.1,29.96,NNW,327,3.0,13.0,38,0.00,,OVC150,0.02,VWS V14.01,2013-01-22 18:10:00,
2013-01-22 13:13:00,25.0,4.1,29.96,NW,315,3.0,6.0,40,0.00,,OVC300,0.02,VWS V14.01,2013-01-22 18:13:00,
2013-01-22 13:18:00,24.7,2.7,29.96,WNW,295,6.0,12.0,38,0.00,,OVC300,0.02,VWS V14.01,2013-01-22 18:18:00,
2013-01-22 13:20:00,24.5,3.1,29.95,NW,312,6.0,12.0,39,0.00,,OVC150,0.02,VWS V14.01,2013-01-22 18:20:00,
2013-01-22 13:23:00,24.5,3.7,29.96,NNE,21,3.0,9.0,40,0.00,,OVC300,0.02,VWS V14.01,2013-01-22 18:23:00,
2013-01-22 13:28:00,24.5,2.5,29.96,NW,319,5.0,11.0,38,0.00,,OVC300,0.02,VWS V14.01,2013-01-22 18:28:00,
2013-01-22 13:30:00,24.4,2.5,29.96,NNW,348,1.0,11.0,38,0.00,,OVC150,0.02,VWS V14.01,2013-01-22 18:30:00,
2013-01-22 13:33:00,24.4,3.0,29.96,NNE,16,0.0,5.0,39,0.00,,OVC300,0.02,VWS V14.01,2013-01-22 18:33:00,
2013-01-22 13:38:00,24.7,2.7,29.96,NE,42,0.0,8.0,38,0.00,,OVC300,0.02,VWS V14.01,2013-01-22 18:38:00,
2013-01-22 13:40:00,24.9,4.6,29.96,NNW,335,5.0,8.0,41,0.00,,OVC150,0.02,VWS V14.01,2013-01-22 18:40:00,
2013-01-22 13:43:00,25.1,2.5,29.95,West,271,5.0,15.0,37,0.00,,OVC300,0.02,VWS V14.01,2013-01-22 18:43:00,
2013-01-22 13:48:00,25.0,3.5,29.96,WNW,288,0.0,15.0,39,0.00,,OVC300,0.02,VWS V14.01,2013-01-22 18:48:00,
2013-01-22 13:50:00,25.0,3.0,29.96,North,350,3.0,15.0,38,0.00,,OVC150,0.02,VWS V14.01,2013-01-22 18:50:00,
2013-01-22 13:53:00,25.1,3.6,29.96,NW,304,2.0,8.0,39,0.00,,OVC300,0.02,VWS V14.01,2013-01-22 18:53:00,
2013-01-22 13:58:00,25.3,3.8,29.96,West,273,6.0,8.0,39,0.00,,OVC300,0.02,VWS V14.01,2013-01-22 18:58:00,
2013-01-22 14:00:00,25.1,1.9,29.96,NW,306,1.0,9.0,36,0.00,,OVC150,0.02,VWS V14.01,2013-01-22 19:00:00,
2013-01-22 14:03:00,24.8,1.6,29.97,NW,309,0.0,4.0,36,0.00,,OVC300,0.02,VWS V14.01,2013-01-22 19:03:00,
2013-01-22 14:08:00,24.1,2.2,29.97,North,355,0.0,5.0,38,0.00,,OVC300,0.02,VWS V14.01,2013-01-22 19:08:00,
2013-01-22 14:10:00,23.8,1.9,29.97,NNE,24,1.0,6.0,38,0.00,,OVC150,0.02,VWS V14.01,2013-01-22 19:10:00,
2013-01-22 14:13:00,23.7,1.2,29.96,North,349,0.0,7.0,37,0.00,,OVC300,0.02,VWS V14.01,2013-01-22 19:13:00,
2013-01-22 14:18:00,23.9,3.1,29.97,NNW,340,1.0,7.0,40,0.00,,OVC300,0.02,VWS V14.01,2013-01-22 19:18:00,
2013-01-22 14:20:00,24.1,2.2,29.97,WNW,292,6.0,8.0,38,0.00,,OVC150,0.02,VWS V14.01,2013-01-22 19:20:00,
2013-01-22 14:23:00,24.2,3.4,29.98,NW,308,5.0,9.0,40,0.00,,OVC300,0.02,VWS V14.01,2013-01-22 19:23:00,
2013-01-22 14:28:00,24.2,2.3,29.98,WNW,302,4.0,12.0,38,0.00,,OVC300,0.02,VWS V14.01,2013-01-22 19:28:00,
2013-01-22 14:30:00,24.0,1.5,29.97,North,5,1.0,12.0,37,0.00,,OVC150,0.02,VWS V14.01,2013-01-22 19:30:00,
2013-01-22 14:33:00,23.9,1.4,29.97,NNW,335,2.0,8.0,37,0.00,,OVC300,0.02,VWS V14.01,2013-01-22 19:33:00,
2013-01-22 14:38:00,24.0,2.1,29.98,NNE,15,1.0,9.0,38,0.00,,OVC300,0.02,VWS V14.01,2013-01-22 19:38:00,
2013-01-22 14:40:00,24.0,2.1,29.98,North,355,0.0,9.0,38,0.00,,OVC150,0.02,VWS V14.01,2013-01-22 19:40:00,
2013-01-22 14:43:00,24.1,1.6,29.98,North,355,0.0,6.0,37,0.00,,OVC300,0.02,VWS V14.01,2013-01-22 19:43:00,
2013-01-22 14:48:00,24.0,0.9,29.98,NW,321,2.0,11.0,36,0.00,,OVC300,0.02,VWS V14.01,2013-01-22 19:48:00,
2013-01-22 14:50:00,23.9,1.4,29.98,WNW,302,3.0,11.0,37,0.00,,OVC150,0.02,VWS V14.01,2013-01-22 19:50:00,
2013-01-22 14:53:00,23.7,1.2,29.98,NW,315,0.0,7.0,37,0.00,,OVC300,0.02,VWS V14.01,2013-01-22 19:53:00,
2013-01-22 14:58:00,23.6,1.2,29.98,North,5,2.0,12.0,37,0.00,,OVC300,0.02,VWS V14.01,2013-01-22 19:58:00,
2013-01-22 15:00:00,23.6,1.2,29.99,West,281,11.0,12.0,37,0.00,,OVC150,0.02,VWS V14.01,2013-01-22 20:00:00,
2013-01-22 15:03:00,23.5,0.5,29.98,North,5,4.0,11.0,36,0.00,,OVC300,0.02,VWS V14.01,2013-01-22 20:03:00,
2013-01-22 15:08:00,23.4,1.0,29.98,NW,307,1.0,11.0,37,0.00,,OVC300,0.02,VWS V14.01,2013-01-22 20:08:00,
2013-01-22 15:10:00,23.3,1.5,29.99,NW,306,4.0,11.0,38,0.00,,OVC150,0.02,VWS V14.01,2013-01-22 20:10:00,
2013-01-22 15:13:00,23.1,0.7,29.99,NW,310,2.0,11.0,37,0.00,,OVC300,0.02,VWS V14.01,2013-01-22 20:13:00,
2013-01-22 15:18:00,22.9,0.5,29.99,NNW,331,1.0,11.0,37,0.00,,OVC300,0.02,VWS V14.01,2013-01-22 20:18:00,
2013-01-22 15:20:00,22.8,1.0,29.99,WNW,301,0.0,11.0,38,0.00,,OVC150,0.02,VWS V14.01,2013-01-22 20:20:00,
2013-01-22 15:23:00,22.8,1.0,29.99,East,90,1.0,6.0,38,0.00,,OVC300,0.02,VWS V14.01,2013-01-22 20:23:00,
2013-01-22 15:28:00,22.8,1.0,29.99,WNW,293,0.0,6.0,38,0.00,,OVC300,0.02,VWS V14.01,2013-01-22 20:28:00,
2013-01-22 15:30:00,22.8,1.6,29.99,North,360,2.0,6.0,39,0.00,,OVC150,0.02,VWS V14.01,2013-01-22 20:30:00,
2013-01-22 15:33:00,22.7,0.3,29.99,NW,319,3.0,9.0,37,0.00,,OVC300,0.02,VWS V14.01,2013-01-22 20:33:00,
2013-01-22 15:38:00,22.5,0.7,29.99,North,360,0.0,12.0,38,0.00,,OVC300,0.02,VWS V14.01,2013-01-22 20:38:00,
2013-01-22 15:40:00,22.5,0.7,30.00,WNW,291,2.0,12.0,38,0.00,,OVC150,0.02,VWS V14.01,2013-01-22 20:40:00,
2013-01-22 15:43:00,22.4,0.1,30.00,North,5,2.0,6.0,37,0.00,,OVC300,0.02,VWS V14.01,2013-01-22 20:43:00,
2013-01-22 15:48:00,22.1,-0.2,29.99,WNW,302,6.0,11.0,37,0.00,,OVC300,0.02,VWS V14.01,2013-01-22 20:48:00,
2013-01-22 15:50:00,22.0,-0.9,30.00,North,355,3.0,11.0,36,0.00,,OVC150,0.02,VWS V14.01,2013-01-22 20:50:00,
2013-01-22 15:53:00,21.9,-0.4,30.00,NW,305,2.0,9.0,37,0.00,,OVC300,0.02,VWS V14.01,2013-01-22 20:53:00,
2013-01-22 15:58:00,21.7,-0.6,30.00,North,360,2.0,9.0,37,0.00,,OVC300,0.02,VWS V14.01,2013-01-22 20:58:00,
2013-01-22 16:00:00,21.6,-1.2,30.01,NNW,342,1.0,9.0,36,0.00,,OVC150,0.02,VWS V14.01,2013-01-22 21:00:00,
2013-01-22 16:03:00,21.5,-0.7,30.01,NNE,26,0.0,8.0,37,0.00,,BKN300,0.02,VWS V14.01,2013-01-22 21:03:00,
2013-01-22 16:08:00,21.3,-0.9,30.01,NW,312,4.0,8.0,37,0.00,,BKN300,0.02,VWS V14.01,2013-01-22 21:08:00,
2013-01-22 16:13:00,21.2,-0.4,30.01,WNW,303,6.0,6.0,38,0.00,,BKN300,0.02,VWS V14.01,2013-01-22 21:13:00,
2013-01-22 16:18:00,21.1,-1.1,30.02,NW,316,0.0,13.0,37,0.01,,BKN300,0.03,VWS V14.01,2013-01-22 21:18:00,
2013-01-22 16:20:00,20.9,-0.7,30.02,NNE,14,3.0,13.0,38,0.01,,OVC150,0.03,VWS V14.01,2013-01-22 21:20:00,
2013-01-22 16:23:00,20.9,-0.7,30.02,SW,234,2.0,6.0,38,0.01,,BKN300,0.03,VWS V14.01,2013-01-22 21:23:00,
2013-01-22 16:28:00,20.7,-0.3,30.02,NW,304,0.0,8.0,39,0.01,,BKN300,0.03,VWS V14.01,2013-01-22 21:28:00,
2013-01-22 16:30:00,20.7,-0.3,30.02,WNW,303,1.0,8.0,39,0.01,,OVC150,0.03,VWS V14.01,2013-01-22 21:30:00,
2013-01-22 16:31:00,20.7,0.2,30.02,WNW,303,0.0,1.0,40,0.01,,BKN300,0.03,VWS V14.01,2013-01-22 21:31:00,
2013-01-22 16:36:00,20.5,0.0,30.03,NW,314,0.0,7.0,40,0.01,,BKN300,0.03,VWS V14.01,2013-01-22 21:36:00,
2013-01-22 16:40:00,20.3,-0.2,30.03,West,271,1.0,7.0,40,0.01,,OVC150,0.03,VWS V14.01,2013-01-22 21:40:00,
2013-01-22 16:42:00,20.2,-0.2,30.03,North,360,0.0,3.0,40,0.01,,BKN300,0.03,VWS V14.01,2013-01-22 21:42:00,
2013-01-22 16:47:00,20.1,-0.9,30.03,NW,313,0.0,8.0,39,0.01,,BKN300,0.03,VWS V14.01,2013-01-22 21:47:00,
2013-01-22 16:50:00,20.1,-0.9,30.03,NNW,327,2.0,8.0,39,0.01,,OVC150,0.03,VWS V14.01,2013-01-22 21:50:00,
2013-01-22 16:52:00,20.1,-0.9,30.04,NW,323,0.0,7.0,39,0.01,,BKN300,0.03,VWS V14.01,2013-01-22 21:52:00,
2013-01-22 16:57:00,20.0,0.1,30.04,North,10,0.0,7.0,41,0.01,,BKN300,0.03,VWS V14.01,2013-01-22 21:57:00,
2013-01-22 17:00:00,19.9,-0.5,30.04,NW,314,0.0,8.0,40,0.01,,OVC150,0.03,VWS V14.01,2013-01-22 22:00:00,
2013-01-22 17:02:00,19.8,-0.6,30.04,WSW,257,0.0,4.0,40,0.01,,BKN300,0.03,VWS V14.01,2013-01-22 22:02:00,
2013-01-22 17:07:00,19.7,-0.7,30.05,NNW,327,1.0,4.0,40,0.01,,BKN300,0.03,VWS V14.01,2013-01-22 22:07:00,
2013-01-22 17:10:00,19.5,0.2,30.05,NW,304,1.0,4.0,42,0.01,,OVC150,0.03,VWS V14.01,2013-01-22 22:10:00,
2013-01-22 17:12:00,19.4,-0.4,30.05,NNW,332,1.0,7.0,41,0.01,,BKN300,0.03,VWS V14.01,2013-01-22 22:12:00,
2013-01-22 17:17:00,19.2,-0.6,30.05,NNW,329,2.0,7.0,41,0.01,,BKN300,0.03,VWS V14.01,2013-01-22 22:17:00,
2013-01-22 17:20:00,19.2,-0.1,30.05,NNW,329,0.0,7.0,42,0.01,,OVC150,0.03,VWS V14.01,2013-01-22 22:20:00,
2013-01-22 17:22:00,19.1,-0.2,30.06,NW,320,0.0,3.0,42,0.00,,BKN300,0.03,VWS V14.01,2013-01-22 22:22:00,
2013-01-22 17:27:00,19.0,-0.3,30.06,NW,325,2.0,5.0,42,0.00,,BKN300,0.03,VWS V14.01,2013-01-22 22:27:00,
2013-01-22 17:30:00,18.9,0.1,30.07,NW,315,0.0,5.0,43,0.00,,OVC150,0.03,VWS V14.01,2013-01-22 22:30:00,
2013-01-22 17:32:00,18.9,-0.4,30.07,North,360,1.0,4.0,42,0.00,,BKN300,0.03,VWS V14.01,2013-01-22 22:32:00,
2013-01-22 17:37:00,18.8,-0.5,30.07,NNW,329,3.0,7.0,42,0.00,,BKN300,0.03,VWS V14.01,2013-01-22 22:37:00,
2013-01-22 17:40:00,18.8,0.0,30.07,North,5,5.0,7.0,43,0.00,,OVC150,0.03,VWS V14.01,2013-01-22 22:40:00,
2013-01-22 17:42:00,18.7,-0.1,30.08,NW,306,0.0,5.0,43,0.00,,BKN300,0.03,VWS V14.01,2013-01-22 22:42:00,
2013-01-22 17:47:00,18.6,-0.2,30.08,NW,317,5.0,14.0,43,0.00,,BKN300,0.03,VWS V14.01,2013-01-22 22:47:00,
2013-01-22 17:50:00,18.6,-0.2,30.08,WNW,292,3.0,14.0,43,0.00,,OVC150,0.03,VWS V14.01,2013-01-22 22:50:00,
2013-01-22 17:52:00,18.6,-0.2,30.08,WNW,282,9.0,9.0,43,0.00,,BKN300,0.03,VWS V14.01,2013-01-22 22:52:00,
2013-01-22 17:57:00,18.5,0.2,30.08,NW,309,3.0,9.0,44,0.00,,BKN300,0.03,VWS V14.01,2013-01-22 22:57:00,
2013-01-22 18:00:00,18.4,0.1,30.09,NNW,344,0.0,9.0,44,0.00,,OVC150,0.03,VWS V14.01,2013-01-22 23:00:00,
2013-01-22 18:02:00,18.3,0.5,30.09,NNW,343,0.0,6.0,45,0.00,,BKN300,0.03,VWS V14.01,2013-01-22 23:02:00,
2013-01-22 18:07:00,18.3,0.5,30.09,WNW,303,0.0,8.0,45,0.00,,BKN300,0.03,VWS V14.01,2013-01-22 23:07:00,
2013-01-22 18:10:00,18.2,0.4,30.09,WNW,302,5.0,8.0,45,0.00,,OVC150,0.03,VWS V14.01,2013-01-22 23:10:00,
2013-01-22 18:12:00,18.2,0.4,30.09,NW,319,0.0,5.0,45,0.00,,BKN300,0.03,VWS V14.01,2013-01-22 23:12:00,
2013-01-22 18:17:00,18.1,0.3,30.10,NW,325,0.0,5.0,45,0.00,,BKN300,0.03,VWS V14.01,2013-01-22 23:17:00,
2013-01-22 18:20:00,18.0,0.2,30.10,NW,307,0.0,8.0,45,0.00,,OVC150,0.03,VWS V14.01,2013-01-22 23:20:00,
2013-01-22 18:22:00,17.9,-0.3,30.10,WNW,302,2.0,7.0,44,0.00,,BKN300,0.03,VWS V14.01,2013-01-22 23:22:00,
2013-01-22 18:27:00,17.9,-0.3,30.10,WNW,299,2.0,7.0,44,0.00,,BKN300,0.03,VWS V14.01,2013-01-22 23:27:00,
2013-01-22 18:30:00,17.9,-0.3,30.10,WNW,294,5.0,7.0,44,0.00,,OVC150,0.03,VWS V14.01,2013-01-22 23:30:00,
2013-01-22 18:32:00,17.9,-0.8,30.10,WNW,286,5.0,9.0,43,0.00,,BKN300,0.03,VWS V14.01,2013-01-22 23:32:00,
2013-01-22 18:37:00,17.8,-0.9,30.10,NNW,342,1.0,9.0,43,0.00,,BKN300,0.03,VWS V14.01,2013-01-22 23:37:00,
2013-01-22 18:40:00,17.8,-1.4,30.10,NNW,327,4.0,9.0,42,0.00,,OVC150,0.03,VWS V14.01,2013-01-22 23:40:00,
2013-01-22 18:42:00,17.7,-1.5,30.10,NW,325,0.0,9.0,42,0.00,,BKN300,0.03,VWS V14.01,2013-01-22 23:42:00,
2013-01-22 18:47:00,17.6,-1.1,30.11,NNW,329,1.0,9.0,43,0.00,,BKN300,0.03,VWS V14.01,2013-01-22 23:47:00,
2013-01-22 18:50:00,17.6,-1.1,30.11,WNW,295,1.0,9.0,43,0.00,,OVC150,0.03,VWS V14.01,2013-01-22 23:50:00,
2013-01-22 18:52:00,17.6,-1.1,30.11,NW,315,0.0,5.0,43,0.00,,BKN300,0.03,VWS V14.01,2013-01-22 23:52:00,
2013-01-22 18:58:00,17.4,-0.8,30.11,NW,323,0.0,6.0,44,0.00,,BKN300,0.03,VWS V14.01,2013-01-22 23:58:00,
2013-01-22 19:00:00,17.3,-0.9,30.11,North,5,2.0,6.0,44,0.00,,OVC150,0.03,VWS V14.01,2013-01-23 00:00:00,
2013-01-22 19:03:00,17.3,-0.9,30.11,North,10,1.0,6.0,44,0.00,,BKN300,0.03,VWS V14.01,2013-01-23 00:03:00,
2013-01-22 19:08:00,17.2,-0.5,30.12,NW,306,0.0,7.0,45,0.00,,BKN300,0.03,VWS V14.01,2013-01-23 00:08:00,
2013-01-22 19:10:00,17.1,-0.6,30.12,NW,324,0.0,7.0,45,0.00,,OVC150,0.03,VWS V14.01,2013-01-23 00:10:00,
2013-01-22 19:13:00,17.0,-0.7,30.12,NW,317,0.0,4.0,45,0.00,,BKN300,0.03,VWS V14.01,2013-01-23 00:13:00,
2013-01-22 19:18:00,16.8,-0.9,30.12,WNW,301,0.0,7.0,45,0.00,,BKN300,0.03,VWS V14.01,2013-01-23 00:18:00,
2013-01-22 19:20:00,16.8,-0.4,30.12,NW,315,0.0,7.0,46,0.00,,OVC150,0.03,VWS V14.01,2013-01-23 00:20:00,
2013-01-22 19:23:00,16.7,-0.5,30.12,NW,315,0.0,1.0,46,0.00,,BKN300,0.03,VWS V14.01,2013-01-23 00:23:00,
2013-01-22 19:28:00,16.4,0.2,30.12,NW,315,2.0,2.0,48,0.00,,BKN300,0.03,VWS V14.01,2013-01-23 00:28:00,
2013-01-22 19:30:00,16.3,0.1,30.12,NW,315,0.0,3.0,48,0.00,,OVC150,0.03,VWS V14.01,2013-01-23 00:30:00,
2013-01-22 19:33:00,16.2,0.0,30.12,NW,315,0.0,1.0,48,0.00,,BKN300,0.03,VWS V14.01,2013-01-23 00:33:00,
2013-01-22 19:38:00,16.0,0.2,30.12,NW,315,0.0,1.0,49,0.00,,BKN300,0.03,VWS V14.01,2013-01-23 00:38:00,
2013-01-22 19:40:00,15.8,0.0,30.13,NW,315,0.0,1.0,49,0.00,,OVC150,0.03,VWS V14.01,2013-01-23 00:40:00,
2013-01-22 19:43:00,15.7,-0.1,30.13,NW,315,0.0,1.0,49,0.00,,BKN300,0.03,VWS V14.01,2013-01-23 00:43:00,
2013-01-22 19:48:00,15.4,0.5,30.13,NNW,327,0.0,2.0,51,0.00,,BKN300,0.03,VWS V14.01,2013-01-23 00:48:00,
2013-01-22 19:50:00,15.3,0.0,30.13,NNW,327,0.0,2.0,50,0.00,,OVC150,0.03,VWS V14.01,2013-01-23 00:50:00,
2013-01-22 19:53:00,15.2,0.8,30.13,NNW,336,1.0,2.0,52,0.00,,BKN300,0.03,VWS V14.01,2013-01-23 00:53:00,
2013-01-22 19:58:00,15.0,0.6,30.12,WNW,288,0.0,3.0,52,0.00,,BKN300,0.03,VWS V14.01,2013-01-23 00:58:00,
2013-01-22 20:00:00,15.0,0.2,30.12,North,5,0.0,3.0,51,0.00,,OVC150,0.03,VWS V14.01,2013-01-23 01:00:00,
2013-01-22 20:03:00,15.0,-0.3,30.12,NW,314,0.0,5.0,50,0.00,,BKN300,0.03,VWS V14.01,2013-01-23 01:03:00,
2013-01-22 20:08:00,15.0,0.2,30.12,NW,314,2.0,5.0,51,0.00,,BKN300,0.03,VWS V14.01,2013-01-23 01:08:00,
2013-01-22 20:10:00,15.0,0.2,30.13,NW,314,0.0,5.0,51,0.00,,OVC150,0.03,VWS V14.01,2013-01-23 01:10:00,
2013-01-22 20:13:00,14.9,0.5,30.13,NW,314,0.0,1.0,52,0.00,,BKN300,0.03,VWS V14.01,2013-01-23 01:13:00,
2013-01-22 20:18:00,14.8,0.4,30.13,NW,313,0.0,1.0,52,0.00,,BKN300,0.03,VWS V14.01,2013-01-23 01:18:00,
2013-01-22 20:20:00,14.8,0.4,30.13,NW,313,0.0,1.0,52,0.00,,OVC150,0.03,VWS V14.01,2013-01-23 01:20:00,
2013-01-22 20:23:00,14.6,1.4,30.13,NW,313,0.0,0.0,55,0.00,,BKN300,0.03,VWS V14.01,2013-01-23 01:23:00,
2013-01-22 20:28:00,14.5,-0.3,30.13,NW,318,0.0,3.0,51,0.00,,BKN300,0.03,VWS V14.01,2013-01-23 01:28:00,
2013-01-22 20:30:00,14.6,-0.6,30.14,NW,306,0.0,3.0,50,0.00,,OVC150,0.03,VWS V14.01,2013-01-23 01:30:00,
2013-01-22 20:33:00,14.6,0.2,30.14,NW,306,0.0,1.0,52,0.00,,BKN300,0.03,VWS V14.01,2013-01-23 01:33:00,
2013-01-22 20:38:00,14.5,1.3,30.14,NW,306,0.0,2.0,55,0.00,,BKN300,0.03,VWS V14.01,2013-01-23 01:38:00,
2013-01-22 20:40:00,14.4,1.2,30.14,NW,306,0.0,2.0,55,0.00,,OVC150,0.03,VWS V14.01,2013-01-23 01:40:00,
2013-01-22 20:43:00,14.4,0.8,30.14,NW,323,0.0,2.0,54,0.00,,BKN300,0.03,VWS V14.01,2013-01-23 01:43:00,
2013-01-22 20:48:00,14.3,0.3,30.13,NNW,333,0.0,2.0,53,0.00,,BKN300,0.03,VWS V14.01,2013-01-23 01:48:00,
2013-01-22 20:50:00,14.3,-0.1,30.13,NNE,30,1.0,2.0,52,0.00,,OVC150,0.03,VWS V14.01,2013-01-23 01:50:00,
2013-01-22 20:53:00,14.3,-0.5,30.13,WNW,292,0.0,3.0,51,0.00,,BKN300,0.03,VWS V14.01,2013-01-23 01:53:00,
2013-01-22 20:58:00,14.3,-0.1,30.14,WNW,286,0.0,3.0,52,0.00,,BKN300,0.03,VWS V14.01,2013-01-23 01:58:00,
2013-01-22 21:00:00,14.3,0.3,30.14,NNW,327,1.0,3.0,53,0.00,,OVC150,0.03,VWS V14.01,2013-01-23 02:00:00,
2013-01-22 21:03:00,14.3,0.7,30.14,NNW,327,0.0,1.0,54,0.00,,BKN300,0.03,VWS V14.01,2013-01-23 02:03:00,
2013-01-22 21:08:00,14.2,0.2,30.14,WNW,298,0.0,8.0,53,0.00,,BKN300,0.03,VWS V14.01,2013-01-23 02:08:00,
2013-01-22 21:10:00,14.3,-0.1,30.14,NNE,17,1.0,8.0,52,0.00,,OVC150,0.03,VWS V14.01,2013-01-23 02:10:00,
2013-01-22 21:13:00,14.3,-0.1,30.14,West,269,0.0,4.0,52,0.00,,BKN300,0.03,VWS V14.01,2013-01-23 02:13:00,
2013-01-22 21:18:00,14.4,0.4,30.14,NW,325,4.0,9.0,53,0.00,,BKN300,0.03,VWS V14.01,2013-01-23 02:18:00,
2013-01-22 21:20:00,14.5,0.5,30.14,NW,323,0.0,9.0,53,0.00,,OVC150,0.03,VWS V14.01,2013-01-23 02:20:00,
2013-01-22 21:23:00,14.5,0.5,30.14,NW,304,2.0,2.0,53,0.00,,BKN300,0.03,VWS V14.01,2013-01-23 02:23:00,
2013-01-22 21:28:00,14.5,0.5,30.15,WNW,282,1.0,5.0,53,0.00,,BKN300,0.03,VWS V14.01,2013-01-23 02:28:00,
2013-01-22 21:30:00,14.5,0.9,30.15,NW,312,0.0,5.0,54,0.00,,OVC150,0.03,VWS V14.01,2013-01-23 02:30:00,
2013-01-22 21:33:00,14.5,0.5,30.15,NNE,24,4.0,4.0,53,0.00,,BKN300,0.03,VWS V14.01,2013-01-23 02:33:00,
2013-01-22 21:38:00,14.5,0.9,30.15,NW,308,2.0,7.0,54,0.00,,BKN300,0.03,VWS V14.01,2013-01-23 02:38:00,
2013-01-22 21:40:00,14.5,0.9,30.15,North,355,0.0,7.0,54,0.00,,OVC150,0.03,VWS V14.01,2013-01-23 02:40:00,
2013-01-22 21:43:00,14.5,0.9,30.15,NNW,344,0.0,3.0,54,0.00,,BKN300,0.03,VWS V14.01,2013-01-23 02:43:00,
2013-01-22 21:48:00,14.4,0.8,30.16,NNW,329,2.0,3.0,54,0.00,,BKN300,0.03,VWS V14.01,2013-01-23 02:48:00,
2013-01-22 21:50:00,14.4,0.8,30.16,NW,326,1.0,7.0,54,0.00,,OVC150,0.03,VWS V14.01,2013-01-23 02:50:00,
2013-01-22 21:53:00,14.4,0.8,30.16,NW,316,0.0,6.0,54,0.00,,BKN300,0.03,VWS V14.01,2013-01-23 02:53:00,
2013-01-22 21:58:00,14.4,0.8,30.16,NW,315,0.0,6.0,54,0.00,,BKN300,0.03,VWS V14.01,2013-01-23 02:58:00,
2013-01-22 22:00:00,14.4,1.2,30.16,NW,325,5.0,6.0,55,0.00,,OVC150,0.03,VWS V14.01,2013-01-23 03:00:00,
2013-01-22 22:03:00,14.3,1.1,30.16,WNW,300,3.0,6.0,55,0.00,,BKN250,0.03,VWS V14.01,2013-01-23 03:03:00,
2013-01-22 22:08:00,14.2,1.4,30.16,NNW,338,0.0,6.0,56,0.00,,BKN250,0.03,VWS V14.01,2013-01-23 03:08:00,
2013-01-22 22:10:00,14.2,1.4,30.16,NW,304,3.0,6.0,56,0.00,,OVC150,0.03,VWS V14.01,2013-01-23 03:10:00,
2013-01-22 22:13:00,14.1,1.3,30.17,NW,307,0.0,3.0,56,0.00,,BKN250,0.03,VWS V14.01,2013-01-23 03:13:00,
2013-01-22 22:18:00,14.0,1.6,30.17,NE,54,0.0,3.0,57,0.00,,BKN250,0.03,VWS V14.01,2013-01-23 03:18:00,
2013-01-22 22:20:00,13.9,1.5,30.17,NE,54,0.0,3.0,57,0.00,,OVC150,0.03,VWS V14.01,2013-01-23 03:20:00,
2013-01-22 22:23:00,13.7,1.3,30.17,NNE,26,0.0,2.0,57,0.00,,BKN250,0.03,VWS V14.01,2013-01-23 03:23:00,
2013-01-22 22:28:00,13.6,1.2,30.17,North,355,0.0,2.0,57,0.00,,BKN250,0.03,VWS V14.01,2013-01-23 03:28:00,
2013-01-22 22:30:00,13.5,1.5,30.17,NW,317,1.0,7.0,58,0.00,,OVC150,0.03,VWS V14.01,2013-01-23 03:30:00,
2013-01-22 22:33:00,13.5,1.1,30.17,NW,306,0.0,2.0,57,0.00,,BKN250,0.03,VWS V14.01,2013-01-23 03:33:00,
2013-01-22 22:38:00,13.4,1.4,30.17,NW,306,0.0,2.0,58,0.00,,BKN250,0.03,VWS V14.01,2013-01-23 03:38:00,
2013-01-22 22:40:00,13.4,1.4,30.17,NW,325,0.0,4.0,58,0.00,,OVC150,0.03,VWS V14.01,2013-01-23 03:40:00,
2013-01-22 22:43:00,13.3,1.7,30.17,NW,325,0.0,0.0,59,0.00,,BKN250,0.03,VWS V14.01,2013-01-23 03:43:00,
2013-01-22 22:48:00,13.2,1.6,30.17,NNW,333,3.0,3.0,59,0.00,,BKN250,0.03,VWS V14.01,2013-01-23 03:48:00,
2013-01-22 22:50:00,13.1,1.5,30.17,NNW,335,0.0,3.0,59,0.00,,OVC150,0.03,VWS V14.01,2013-01-23 03:50:00,
2013-01-22 22:53:00,13.0,1.4,30.17,NNW,335,1.0,1.0,59,0.00,,BKN250,0.03,VWS V14.01,2013-01-23 03:53:00,
2013-01-22 22:58:00,12.9,1.3,30.17,WNW,302,0.0,3.0,59,0.00,,BKN250,0.03,VWS V14.01,2013-01-23 03:58:00,
2013-01-22 23:00:00,12.9,1.6,30.17,WNW,302,0.0,3.0,60,0.00,,OVC150,0.03,VWS V14.01,2013-01-23 04:00:00,
2013-01-22 23:03:00,12.9,1.6,30.17,WNW,302,0.0,0.0,60,0.00,,BKN250,0.03,VWS V14.01,2013-01-23 04:03:00,
2013-01-22 23:08:00,12.8,1.5,30.17,NNW,333,0.0,1.0,60,0.00,,BKN250,0.03,VWS V14.01,2013-01-23 04:08:00,
2013-01-22 23:10:00,12.8,1.9,30.17,NNW,333,0.0,1.0,61,0.00,,OVC150,0.03,VWS V14.01,2013-01-23 04:10:00,
2013-01-22 23:13:00,12.8,1.9,30.17,NNW,333,0.0,1.0,61,0.00,,BKN250,0.03,VWS V14.01,2013-01-23 04:13:00,
2013-01-22 23:18:00,12.7,1.8,30.18,NNW,334,0.0,2.0,61,0.00,,BKN250,0.03,VWS V14.01,2013-01-23 04:18:00,
2013-01-22 23:20:00,12.7,1.8,30.18,NNW,334,0.0,2.0,61,0.00,,OVC150,0.03,VWS V14.01,2013-01-23 04:20:00,
2013-01-22 23:23:00,12.6,1.7,30.17,WNW,284,0.0,5.0,61,0.00,,BKN250,0.03,VWS V14.01,2013-01-23 04:23:00,
2013-01-22 23:28:00,12.6,2.1,30.18,West,262,0.0,5.0,62,0.00,,BKN250,0.03,VWS V14.01,2013-01-23 04:28:00,
2013-01-22 23:30:00,12.6,2.1,30.18,NW,304,2.0,5.0,62,0.00,,OVC150,0.03,VWS V14.01,2013-01-23 04:30:00,
2013-01-22 23:33:00,12.6,2.1,30.18,NW,324,0.0,2.0,62,0.00,,BKN250,0.03,VWS V14.01,2013-01-23 04:33:00,
2013-01-22 23:38:00,12.7,2.2,30.17,NNW,342,2.0,7.0,62,0.00,,BKN250,0.03,VWS V14.01,2013-01-23 04:38:00,
2013-01-22 23:40:00,12.7,2.2,30.17,NW,317,2.0,7.0,62,0.00,,OVC150,0.03,VWS V14.01,2013-01-23 04:40:00,
2013-01-22 23:43:00,12.8,2.6,30.17,WNW,302,2.0,3.0,63,0.00,,BKN250,0.03,VWS V14.01,2013-01-23 04:43:00,
2013-01-22 23:48:00,12.8,2.6,30.17,NNW,343,1.0,6.0,63,0.00,,BKN250,0.03,VWS V14.01,2013-01-23 04:48:00,
2013-01-22 23:50:00,12.8,2.6,30.17,NNW,341,0.0,6.0,63,0.00,,OVC150,0.03,VWS V14.01,2013-01-23 04:50:00,
2013-01-22 23:53:00,12.7,2.8,30.17,NW,315,0.0,6.0,64,0.00,,BKN250,0.03,VWS V14.01,2013-01-23 04:53:00,
2013-01-22 23:58:00,12.7,2.8,30.17,WNW,302,0.0,7.0,64,0.00,,BKN250,0.03,VWS V14.01,2013-01-23 04:58:00,